This is the latest recevied weather packets stored in our database for station/object DB5ZQ. If no packets are shown the sender has not sent any weather packets the latest 10 day(s).
| Time | Temp. | Humidity | Pressure | Rain* | Wind** | Luminosity | Snow |
|---|---|---|---|---|---|---|---|
| 1777994580 | 19.44° C | 69% | 1003.3 hPa | 0 mm | - | - | - |
| 1777994280 | 19.44° C | 69% | 1003.2 hPa | 0 mm | - | - | - |
| 1777993980 | 19.44° C | 68% | 1003.2 hPa | 0 mm | - | - | - |
| 1777993680 | 20° C | 68% | 1003.2 hPa | 0 mm | - | - | - |
| 1777993379 | 20° C | 69% | 1003.2 hPa | 0 mm | - | - | - |
| 1777993079 | 19.44° C | 69% | 1003.2 hPa | 0 mm | - | - | - |
| 1777992779 | 19.44° C | 69% | 1003.1 hPa | 0 mm | - | - | - |
| 1777992479 | 20° C | 68% | 1003.2 hPa | 0 mm | - | - | - |
| 1777992178 | 19.44° C | 68% | 1003.2 hPa | 0 mm | - | - | - |
| 1777991878 | 20° C | 68% | 1003.2 hPa | 0 mm | - | - | - |
| 1777991578 | 19.44° C | 68% | 1003.2 hPa | 0 mm | - | - | - |
| 1777991278 | 19.44° C | 67% | 1003.2 hPa | 0 mm | - | - | - |
| 1777990977 | 19.44° C | 67% | 1003.2 hPa | 0 mm | - | - | - |
| 1777990677 | 20° C | 65% | 1003.2 hPa | 0 mm | - | - | - |
| 1777990377 | 20° C | 65% | 1003.3 hPa | 0 mm | - | - | - |
| 1777990076 | 20.56° C | 62% | 1003.2 hPa | 0 mm | - | - | - |
| 1777989776 | 21.11° C | 59% | 1003.2 hPa | 0 mm | - | - | - |
| 1777989476 | 21.11° C | 57% | 1003.1 hPa | 0 mm | - | - | - |
| 1777989175 | 21.67° C | 55% | 1003 hPa | 0 mm | - | - | - |
| 1777988875 | 22.22° C | 54% | 1002.9 hPa | 0 mm | - | - | - |
| 1777988575 | 22.22° C | 50% | 1003 hPa | 0 mm | - | - | - |
| 1777988275 | 22.78° C | 49% | 1003 hPa | 0 mm | - | - | - |
| 1777987974 | 22.78° C | 49% | 1003 hPa | 0 mm | - | - | - |
| 1777987674 | 22.78° C | 49% | 1003 hPa | 0 mm | - | - | - |
| 1777987374 | 22.78° C | 49% | 1003 hPa | 0 mm | - | - | - |
* Rain latest hour (hover to see other rain measurements)
** Current wind speed in m/s (hover to see current wind gust speed)